Regional Weather Roundup
Issued by NWS

Home | Current Version | Previous Version | Text Only | Print | Product List | Glossary On
Versions: 1 2 3 4 5 6 7 8 9 10 11 12 13 14 15 16 17 18 19 20 21 22 23 24 25 26 27 28 29 30 31 32 33 34 35 36 37 38 39 40 41 42 43 44 45 46 47 48 49 50
000
ASUS45 KREV 290710
RWRNV
NEVADA REGIONAL WEATHER ROUNDUP
NATIONAL WEATHER SERVICE RENO NV
1200 AM PDT TUE JUL 29 2014

NOTE: "FAIR" INDICATES FEW OR NO CLOUDS BELOW 12,000 FEET WITH NO
SIGNIFICANT WEATHER AND/OR OBSTRUCTIONS TO VISIBILITY.

NVZ001-003-004-290800-
WESTERN NEVADA

CITY           SKY/WX    TMP DP  RH WIND       PRES   REMARKS
RENO           MOCLDY    77  48  35 SE3       30.20F
CARSON CITY    FAIR      72  50  46 W5        30.24S
SLIDE MTN        N/A     55  37  50 W12         N/A
PYRAMID LAKE     N/A     81 N/A N/A S16         N/A
FALLON         CLOUDY    75  51  43 S9        30.15S
LOVELOCK       CLOUDY    75  51  43 SE6       30.13R
HAWTHORNE      CLEAR     73  55  53 CALM      30.22F
$$

NVZ002-CAZ072-073-290800-
NORTHERN AND CENTRAL SIERRA

CITY           SKY/WX    TMP DP  RH WIND       PRES   REMARKS
S. LAKE TAHOE  MOCLDY    64  40  41 CALM      30.36F
TRUCKEE        MOCLDY    61  41  48 CALM      30.35S
SQUAW VLY 8000 NOT AVBL
SUSANVILLE     CLEAR     79  41  25 NW14      30.18S
BLUE CANYON    MOCLDY    69  37  30 E3        30.32F
MAMMOTH LAKES  FAIR      54  54 100 W5        30.44F
BRIDGEPORT     FAIR      53  47  79 CALM      30.39S
$$

NVZ030-031-036-290800-
NORTHERN NEVADA

CITY           SKY/WX    TMP DP  RH WIND       PRES   REMARKS
ELKO           CLOUDY    68  51  54 CALM      30.24F
WINNEMUCCA     CLOUDY    77  45  32 SE17      30.14S
WENDOVER       CLOUDY    72  59  64 E9        30.21F
$$

NVZ035-037-290800-
CENTRAL NEVADA

CITY           SKY/WX    TMP DP  RH WIND       PRES   REMARKS
ELY            CLOUDY    62  53  72 S3        30.33F
EUREKA           N/A     61  58  90 S3        30.33F
$$

NVZ013-014-290800-
SOUTH CENTRAL NEVADA

CITY           SKY/WX    TMP DP  RH WIND       PRES   REMARKS
TONOPAH        LGT RAIN  63  57  81 SW8       30.33R
$$

NVZ017-020-022-290800-
SOUTHERN NEVADA

CITY           SKY/WX    TMP DP  RH WIND       PRES   REMARKS
LAS VEGAS      MOCLDY    83  63  50 S9        30.00F
N. LAS VEGAS   PTCLDY    84  60  44 N6        30.04S
NELLIS AFB     PTCLDY    81  66  61 NE5       30.02S
HENDERSON      PTCLDY    76  66  71 SE7       30.07F
MERCURY        MOCLDY    79  57  46 N5        30.13F
$$


USA.gov is the U.S. government's official web portal to all federal, state and local government web resources and services.